Starlink 33679

operational
NORAD ID: 63460 Int'l Des: 2025-070 Owner: SPXS Country: US Constellation: starlink
LEOCIRCULAR

关于 Starlink 33679

正在加载描述...

实时位置

正在加载3D地球...

即将过境

高度历史

Altitude vs Time

uPlot chart will show altitude changes over time

两行轨道根数

1 63460U 25070A 25307.56219957 .00034518 00000-0 12566-2 0 9997
2 63460 43.0040 252.4176 0001134 287.4481 72.6247 15.27618704 33681
Epoch: Nov 3, 2025 • Age: 16 hours

当前状态

高度 484.6 km
速度 7.63 km/s
星下点 32.95°N, 104.94°W
发射日期 Apr 6, 2025
运行时间 0.5 years
类型 internet

技术详情

分类 Payload
质量 575.00 kg
干质量 530.00 kg
总质量 575.00 kg
长度 0.30 m
直径 4.10 m
跨度 29.00 m
形状 Box + pan
制造商 SPXS
平台类型 Starlink V2MO
阶段状态 In Orbit
所有者/国家 SPXS/US

大型星座

Loading constellations...